User: anonymous   Login
Location: Unspecified
(0.0000°N, 0.0000°E)
Time: 02:02:08
(UTC+00:00)
Language:

SO-67 - Orbit

View from above orbital plane
View from above orbital plane
View from above satellite
View from above satellite

Ground track
Ground track

The orbit data is extracted from the following two-line orbital elements,

1 35870U 09049F   14326.50128387  .00016712  00000-0  47688-3 0  7187
2 35870 097.1502 342.9622 0000861 109.4919 054.8857 15.36106932288321
Epoch (UTC): 22 November 2014 12:01:50
Eccentricity: 0.0000861
inclination: 97.1502°
perigee height: 457 km
apogee height: 458 km
right ascension of ascending node: 342.9622°
argument of perigee: 109.4919°
revolutions per day: 15.36106932
mean anomaly at epoch: 54.8857°
orbit number at epoch: 28832

The dashed part of the orbit path shows where the satellite is in the earth's shadow,  

DLR